| time (UTC) | temp C | wind direction | speed KPH | gust KPH | rain 1hr cm | rain 24hr cm | rain mn cm | humidity % | barometer mb |
| 20260508122605 | 17 | 231 | 20.9 | 37.0 | 0.00 | 0.00 | 0.00 | 60 | 1008.6 |
| 20260508122105 | 16 | 219 | 22.5 | 38.6 | 0.00 | 0.00 | 0.00 | 60 | 1008.8 |
| 20260508121107 | 16 | 227 | 17.7 | 32.2 | 0.00 | 0.00 | 0.00 | 61 | 1009.0 |
| 20260508120604 | 16 | 211 | 17.7 | 33.8 | 0.00 | 0.00 | 0.00 | 61 | 1009.2 |
| 20260508114105 | 17 | 197 | 17.7 | 32.2 | 0.00 | 0.00 | 0.00 | 59 | 1009.1 |
| 20260508113605 | 16 | 213 | 25.7 | 38.6 | 0.00 | 0.00 | 0.00 | 61 | 1009.2 |
| 20260508113106 | 17 | 208 | 25.7 | 37.0 | 0.00 | 0.00 | 0.00 | 60 | 1009.0 |
| 20260508112606 | 16 | 204 | 25.7 | 38.6 | 0.00 | 0.00 | 0.00 | 60 | 1009.0 |
| 20260508112105 | 17 | 211 | 19.3 | 37.0 | 0.00 | 0.00 | 0.00 | 60 | 1009.0 |
| 20260508111606 | 17 | 202 | 19.3 | 33.8 | 0.00 | 0.00 | 0.00 | 60 | 1009.0 |
| 20260508111105 | 16 | 194 | 27.4 | 35.4 | 0.00 | 0.00 | 0.00 | 61 | 1009.2 |
| 20260508110105 | 17 | 212 | 14.5 | 33.8 | 0.00 | 0.00 | 0.00 | 61 | 1009.0 |
| 20260508105606 | 17 | 203 | 20.9 | 29.0 | 0.00 | 0.00 | 0.00 | 60 | 1009.0 |
| 20260508105106 | 16 | 210 | 19.3 | 33.8 | 0.00 | 0.00 | 0.00 | 61 | 1009.3 |
| 20260508104605 | 16 | 234 | 19.3 | 32.2 | 0.00 | 0.00 | 0.00 | 62 | 1009.4 |
| 20260508104105 | 17 | 225 | 19.3 | 35.4 | 0.00 | 0.00 | 0.00 | 61 | 1009.3 |
| 20260508103605 | 16 | 220 | 19.3 | 32.2 | 0.00 | 0.00 | 0.00 | 61 | 1009.6 |
| 20260508103106 | 16 | 220 | 19.3 | 32.2 | 0.00 | 0.00 | 0.00 | 63 | 1009.9 |
| 20260508102605 | 16 | 202 | 20.9 | 38.6 | 0.00 | 0.00 | 0.00 | 64 | 1009.8 |
| 20260508102105 | 16 | 202 | 24.1 | 35.4 | 0.00 | 0.00 | 0.00 | 63 | 1009.6 |
| 20260508101605 | 16 | 210 | 20.9 | 33.8 | 0.00 | 0.00 | 0.00 | 62 | 1009.6 |
| 20260508100605 | 15 | 222 | 20.9 | 32.2 | 0.00 | 0.00 | 0.00 | 66 | 1010.0 |
| 20260508100106 | 15 | 196 | 20.9 | 37.0 | 0.00 | 0.00 | 0.00 | 66 | 1009.9 |
| 20260508095104 | 15 | 204 | 22.5 | 37.0 | 0.00 | 0.00 | 0.00 | 64 | 1009.9 |
| 20260508093606 | 15 | 198 | 20.9 | 35.4 | 0.00 | 0.00 | 0.00 | 63 | 1009.8 |
| 20260508093105 | 15 | 214 | 17.7 | 35.4 | 0.00 | 0.00 | 0.00 | 64 | 1009.7 |
| 20260508092605 | 15 | 203 | 20.9 | 32.2 | 0.00 | 0.00 | 0.00 | 64 | 1009.8 |
| 20260508092105 | 15 | 192 | 20.9 | 33.8 | 0.00 | 0.00 | 0.00 | 64 | 1009.9 |
| 20260508085605 | 15 | 194 | 22.5 | 38.6 | 0.00 | 0.00 | 0.00 | 67 | 1009.8 |
| 20260508085105 | 15 | 192 | 20.9 | 35.4 | 0.00 | 0.00 | 0.00 | 66 | 1009.8 |
| 20260508084605 | 15 | 199 | 17.7 | 37.0 | 0.00 | 0.00 | 0.00 | 66 | 1009.6 |
| 20260508084105 | 14 | 192 | 19.3 | 33.8 | 0.00 | 0.00 | 0.00 | 68 | 1009.8 |
| 20260508083604 | 14 | 188 | 22.5 | 40.2 | 0.00 | 0.00 | 0.00 | 69 | 1009.9 |
| 20260508083104 | 13 | 200 | 20.9 | 37.0 | 0.00 | 0.00 | 0.00 | 70 | 1010.1 |
| 20260508082605 | 14 | 190 | 20.9 | 33.8 | 0.00 | 0.00 | 0.00 | 68 | 1009.8 |
| 20260508082105 | 14 | 199 | 16.1 | 33.8 | 0.00 | 0.00 | 0.00 | 69 | 1009.9 |
| 20260508081605 | 13 | 217 | 14.5 | 32.2 | 0.00 | 0.00 | 0.00 | 69 | 1009.9 |
| 20260508080605 | 14 | 201 | 12.9 | 33.8 | 0.00 | 0.00 | 0.00 | 69 | 1009.6 |
| 20260508080106 | 13 | 189 | 19.3 | 33.8 | 0.00 | 0.00 | 0.00 | 69 | 1009.6 |
| 20260508075605 | 13 | 189 | 24.1 | 38.6 | 0.00 | 0.00 | 0.00 | 70 | 1009.6 |
| 20260508075105 | 13 | 192 | 17.7 | 33.8 | 0.00 | 0.00 | 0.00 | 70 | 1009.4 |
| 20260508074605 | 13 | 195 | 14.5 | 33.8 | 0.00 | 0.00 | 0.00 | 71 | 1009.5 |
| 20260508074105 | 13 | 179 | 17.7 | 29.0 | 0.00 | 0.00 | 0.00 | 70 | 1009.2 |
| 20260508073605 | 13 | 197 | 17.7 | 37.0 | 0.00 | 0.00 | 0.00 | 71 | 1009.7 |
| 20260508073105 | 13 | 188 | 14.5 | 35.4 | 0.00 | 0.00 | 0.00 | 71 | 1009.6 |
| 20260508072605 | 13 | 185 | 16.1 | 29.0 | 0.00 | 0.00 | 0.00 | 71 | 1009.6 |
| 20260508072104 | 12 | 200 | 16.1 | 33.8 | 0.00 | 0.00 | 0.00 | 71 | 1009.5 |
| 20260508071605 | 12 | 183 | 17.7 | 37.0 | 0.00 | 0.00 | 0.00 | 72 | 1009.8 |
| 20260508070604 | 12 | 168 | 16.1 | 29.0 | 0.00 | 0.00 | 0.00 | 73 | 1010.1 |
| 20260508070105 | 12 | 178 | 16.1 | 40.2 | 0.00 | 0.00 | 0.00 | 72 | 1009.9 |
| 20260508065605 | 12 | 168 | 17.7 | 32.2 | 0.00 | 0.00 | 0.00 | 72 | 1010.1 |
| 20260508065105 | 12 | 193 | 11.3 | 27.4 | 0.00 | 0.00 | 0.00 | 70 | 1010.1 |
| 20260508064604 | 12 | 201 | 12.9 | 25.7 | 0.00 | 0.00 | 0.00 | 69 | 1010.1 |
| 20260508064105 | 12 | 195 | 14.5 | 29.0 | 0.00 | 0.00 | 0.00 | 68 | 1010.2 |
| 20260508063606 | 12 | 205 | 12.9 | 24.1 | 0.00 | 0.00 | 0.00 | 69 | 1010.1 |
| 20260508063105 | 12 | 207 | 9.7 | 19.3 | 0.00 | 0.00 | 0.00 | 69 | 1010.0 |
| 20260508062604 | 12 | 214 | 9.7 | 20.9 | 0.00 | 0.00 | 0.00 | 69 | 1009.8 |
| 20260508062105 | 12 | 204 | 8.0 | 20.9 | 0.00 | 0.00 | 0.00 | 68 | 1009.9 |
| 20260508061605 | 12 | 210 | 4.8 | 9.7 | 0.00 | 0.00 | 0.00 | 68 | 1010.1 |
| 20260508061105 | 12 | 204 | 3.2 | 8.0 | 0.00 | 0.00 | 0.00 | 68 | 1010.0 |
| 20260508060105 | 11 | 72 | 8.0 | 11.3 | 0.00 | 0.00 | 0.00 | 69 | 1009.8 |
| 20260508055105 | 11 | 141 | 8.0 | 12.9 | 0.00 | 0.00 | 0.00 | 69 | 1009.6 |
| 20260508054605 | 11 | 121 | 4.8 | 12.9 | 0.00 | 0.00 | 0.00 | 70 | 1009.3 |
| 20260508054104 | 11 | 82 | 11.3 | 25.7 | 0.00 | 0.00 | 0.00 | 70 | 1009.3 |
| 20260508053605 | 11 | 108 | 11.3 | 29.0 | 0.00 | 0.00 | 0.00 | 69 | 1009.1 |
| 20260508053104 | 11 | 134 | 11.3 | 33.8 | 0.00 | 0.00 | 0.00 | 68 | 1009.2 |
| 20260508052106 | 11 | 170 | 8.0 | 20.9 | 0.00 | 0.00 | 0.00 | 68 | 1008.9 |
| 20260508051605 | 11 | 174 | 12.9 | 24.1 | 0.00 | 0.00 | 0.00 | 67 | 1009.1 |
| 20260508051104 | 11 | 177 | 8.0 | 11.3 | 0.00 | 0.00 | 0.00 | 69 | 1009.5 |
| 20260508050105 | 11 | 83 | 3.2 | 14.5 | 0.00 | 0.00 | 0.00 | 71 | 1009.9 |
| 20260508045604 | 11 | 205 | 8.0 | 16.1 | 0.00 | 0.00 | 0.00 | 71 | 1010.0 |
| 20260508044605 | 11 | 220 | 4.8 | 9.7 | 0.00 | 0.00 | 0.00 | 72 | 1009.7 |
| 20260508044105 | 11 | 283 | 3.2 | 9.7 | 0.00 | 0.00 | 0.00 | 72 | 1009.8 |
| 20260508043605 | 11 | 240 | 3.2 | 9.7 | 0.00 | 0.00 | 0.00 | 73 | 1009.6 |
| 20260508043104 | 11 | 166 | 4.8 | 11.3 | 0.00 | 0.00 | 0.00 | 73 | 1009.5 |
| 20260508042605 | 11 | 172 | 4.8 | 11.3 | 0.00 | 0.00 | 0.00 | 73 | 1009.5 |
| 20260508041604 | 11 | 172 | 6.4 | 14.5 | 0.00 | 0.00 | 0.00 | 74 | 1010.0 |
| 20260508041105 | 11 | 197 | 8.0 | 19.3 | 0.00 | 0.00 | 0.00 | 73 | 1010.1 |
| 20260508040605 | 11 | 194 | 9.7 | 14.5 | 0.00 | 0.00 | 0.00 | 74 | 1010.1 |
| 20260508040105 | 11 | 198 | 8.0 | 20.9 | 0.00 | 0.00 | 0.00 | 74 | 1010.1 |
| 20260508035104 | 11 | 207 | 8.0 | 14.5 | 0.00 | 0.00 | 0.00 | 74 | 1010.1 |
| 20260508034605 | 11 | 206 | 8.0 | 16.1 | 0.00 | 0.00 | 0.00 | 74 | 1010.1 |
| 20260508034105 | 11 | 202 | 9.7 | 16.1 | 0.00 | 0.00 | 0.00 | 74 | 1010.1 |
| 20260508033604 | 11 | 189 | 9.7 | 20.9 | 0.00 | 0.00 | 0.00 | 74 | 1010.1 |
| 20260508032604 | 11 | 200 | 11.3 | 16.1 | 0.00 | 0.00 | 0.00 | 74 | 1010.2 |
| 20260508032104 | 11 | 188 | 8.0 | 19.3 | 0.00 | 0.00 | 0.00 | 74 | 1009.9 |
| 20260508031605 | 11 | 196 | 9.7 | 20.9 | 0.00 | 0.00 | 0.00 | 73 | 1010.2 |
| 20260508031104 | 11 | 197 | 11.3 | 20.9 | 0.00 | 0.00 | 0.00 | 73 | 1010.1 |
| 20260508030605 | 11 | 192 | 11.3 | 20.9 | 0.00 | 0.00 | 0.00 | 72 | 1010.1 |
| 20260508030104 | 11 | 196 | 14.5 | 24.1 | 0.00 | 0.00 | 0.00 | 72 | 1010.1 |
| 20260508025604 | 11 | 204 | 9.7 | 24.1 | 0.00 | 0.00 | 0.00 | 72 | 1010.0 |
| 20260508025104 | 12 | 194 | 14.5 | 25.7 | 0.00 | 0.00 | 0.00 | 71 | 1010.0 |
| 20260508024605 | 12 | 202 | 11.3 | 19.3 | 0.00 | 0.00 | 0.00 | 70 | 1009.9 |
| 20260508024104 | 11 | 197 | 8.0 | 16.1 | 0.00 | 0.00 | 0.00 | 68 | 1009.9 |
| 20260508023106 | 12 | 181 | 8.0 | 20.9 | 0.00 | 0.00 | 0.00 | 66 | 1009.9 |
| 20260508022605 | 11 | 151 | 3.2 | 8.0 | 0.00 | 0.00 | 0.00 | 66 | 1009.7 |
| 20260508022105 | 12 | 205 | 1.6 | 8.0 | 0.00 | 0.00 | 0.00 | 65 | 1009.7 |
| 20260508021605 | 12 | 170 | 3.2 | 8.0 | 0.00 | 0.00 | 0.00 | 65 | 1009.9 |
| 20260508020606 | 12 | 201 | 8.0 | 11.3 | 0.00 | 0.00 | 0.00 | 65 | 1009.9 |
| 20260508020106 | 12 | 177 | 6.4 | 11.3 | 0.00 | 0.00 | 0.00 | 65 | 1009.5 |
| 20260508015104 | 12 | 223 | 4.8 | 14.5 | 0.00 | 0.00 | 0.00 | 64 | 1009.6 |
| 20260508014604 | 12 | 192 | 3.2 | 11.3 | 0.00 | 0.00 | 0.00 | 62 | 1009.4 |
| 20260508014105 | 12 | 16 | 4.8 | 12.9 | 0.00 | 0.00 | 0.00 | 62 | 1009.4 |
| 20260508013604 | 12 | 107 | 4.8 | 9.7 | 0.00 | 0.00 | 0.00 | 62 | 1009.3 |
| 20260508013104 | 12 | 109 | 4.8 | 11.3 | 0.00 | 0.00 | 0.00 | 62 | 1009.7 |
| 20260508012606 | 12 | 137 | 4.8 | 14.5 | 0.00 | 0.00 | 0.00 | 62 | 1009.7 |
| 20260508012105 | 12 | 193 | 4.8 | 19.3 | 0.00 | 0.00 | 0.00 | 61 | 1009.5 |
| 20260508011604 | 12 | 123 | 4.8 | 14.5 | 0.00 | 0.00 | 0.00 | 61 | 1009.5 |
| 20260508011104 | 12 | 107 | 4.8 | 14.5 | 0.00 | 0.00 | 0.00 | 62 | 1009.5 |
| 20260508010604 | 12 | 115 | 4.8 | 14.5 | 0.00 | 0.00 | 0.00 | 63 | 1009.7 |
| 20260508010105 | 12 | 131 | 6.4 | 19.3 | 0.00 | 0.00 | 0.00 | 63 | 1009.7 |
| 20260508005604 | 12 | 200 | 4.8 | 14.5 | 0.00 | 0.00 | 0.00 | 62 | 1009.8 |
| 20260508005106 | 12 | 110 | 8.0 | 12.9 | 0.00 | 0.00 | 0.00 | 61 | 1009.9 |
| 20260508004104 | 12 | 200 | 4.8 | 14.5 | 0.00 | 0.00 | 0.00 | 61 | 1010.0 |
| 20260508003104 | 12 | 116 | 11.3 | 20.9 | 0.00 | 0.00 | 0.00 | 60 | 1010.1 |
| 20260508002604 | 12 | 83 | 6.4 | 12.9 | 0.00 | 0.00 | 0.00 | 60 | 1010.0 |
| 20260508002104 | 12 | 112 | 8.0 | 14.5 | 0.00 | 0.00 | 0.00 | 61 | 1010.3 |
| 20260508001605 | 12 | 175 | 4.8 | 16.1 | 0.00 | 0.00 | 0.00 | 62 | 1010.4 |
| 20260508001105 | 12 | 193 | 4.8 | 11.3 | 0.00 | 0.00 | 0.00 | 63 | 1010.5 |
| 20260508000604 | 12 | 215 | 4.8 | 9.7 | 0.00 | 0.00 | 0.00 | 63 | 1010.4 |
| 20260508000105 | 12 | 146 | 3.2 | 8.0 | 0.00 | 0.00 | 0.00 | 63 | 1010.3 |
| 20260507235106 | 12 | 7 | 1.6 | 4.8 | 0.00 | 0.00 | 0.00 | 65 | 1010.8 |
| 20260507233604 | 13 | 214 | 4.8 | 8.0 | 0.00 | 0.00 | 0.00 | 63 | 1010.8 |
| 20260507232605 | 13 | 74 | 8.0 | 8.0 | 0.00 | 0.00 | 0.00 | 63 | 1010.8 |
| 20260507231604 | 13 | 67 | 9.7 | 9.7 | 0.00 | 0.00 | 0.00 | 63 | 1010.9 |
| 20260507230104 | 13 | 132 | 4.8 | 8.0 | 0.00 | 0.00 | 0.00 | 63 | 1011.1 |
| 20260507225602 | 13 | 211 | 3.2 | 4.8 | 0.00 | 0.00 | 0.00 | 62 | 1011.0 |